TimeEST,TemperatureF,Dew PointF,Humidity,Sea Level PressureIn,VisibilityMPH,Wind Direction,Wind SpeedMPH,Gust SpeedMPH,PrecipitationIn,Events,Conditions,WindDirDegrees,DateUTC
12:14 AM,19.4,16.5,89,30.28,7.0,Calm,Calm,-,N/A,,Clear,0,2012-11-28 05:14:00
12:34 AM,20.1,17.2,89,30.28,7.0,Calm,Calm,-,N/A,,Clear,0,2012-11-28 05:34:00
12:55 AM,19.4,16.7,89,30.28,7.0,WSW,3.5,-,N/A,,Clear,240,2012-11-28 05:55:00
1:34 AM,19.6,16.2,87,30.27,7.0,SW,4.6,-,N/A,,Clear,220,2012-11-28 06:34:00
1:54 AM,19.4,16.5,89,30.28,7.0,West,4.6,-,N/A,,Clear,260,2012-11-28 06:54:00
2:14 AM,19.6,16.3,87,30.28,7.0,Calm,Calm,-,N/A,,Clear,0,2012-11-28 07:14:00
2:34 AM,19.8,16.5,87,30.28,7.0,SW,3.5,-,N/A,,Clear,220,2012-11-28 07:34:00
2:54 AM,18.9,15.8,88,30.28,7.0,SW,4.6,-,N/A,,Clear,220,2012-11-28 07:54:00
3:14 AM,18.7,15.8,89,30.28,7.0,SW,3.5,-,N/A,,Clear,220,2012-11-28 08:14:00
3:34 AM,19.0,16.3,89,30.28,7.0,SW,3.5,-,N/A,,Mostly Cloudy,230,2012-11-28 08:34:00
3:54 AM,21.2,18.1,88,30.28,7.0,SW,3.5,-,N/A,,Overcast,230,2012-11-28 08:54:00
4:14 AM,22.6,19.4,87,30.28,7.0,SW,4.6,-,N/A,,Overcast,220,2012-11-28 09:14:00
4:34 AM,23.5,19.9,86,30.28,7.0,SW,5.8,-,N/A,,Overcast,230,2012-11-28 09:34:00
4:54 AM,23.9,20.3,86,30.28,7.0,SW,5.8,-,N/A,,Overcast,230,2012-11-28 09:54:00
5:14 AM,24.8,20.1,82,30.28,7.0,WSW,5.8,-,N/A,,Overcast,240,2012-11-28 10:14:00
5:34 AM,24.8,20.1,82,30.29,7.0,WSW,5.8,-,N/A,,Overcast,240,2012-11-28 10:34:00
5:54 AM,24.8,20.1,82,30.30,7.0,WSW,5.8,-,N/A,,Mostly Cloudy,250,2012-11-28 10:54:00
6:14 AM,22.8,18.5,83,30.30,7.0,WSW,3.5,-,N/A,,Clear,240,2012-11-28 11:14:00
6:34 AM,22.6,18.9,85,30.30,7.0,WSW,6.9,-,N/A,,Scattered Clouds,240,2012-11-28 11:34:00
6:54 AM,25.3,21.0,84,30.30,7.0,WSW,6.9,-,N/A,,Overcast,240,2012-11-28 11:54:00
7:14 AM,25.7,21.2,83,30.30,7.0,SW,8.1,-,N/A,,Overcast,230,2012-11-28 12:14:00
7:34 AM,25.7,21.2,83,30.31,5.0,WSW,8.1,-,N/A,,Overcast,240,2012-11-28 12:34:00
7:54 AM,26.4,21.7,82,30.32,5.0,WSW,8.1,-,N/A,,Overcast,240,2012-11-28 12:54:00
8:14 AM,26.4,21.9,83,30.32,5.0,WSW,6.9,-,N/A,,Overcast,240,2012-11-28 13:14:00
8:34 AM,26.6,22.1,83,30.32,5.0,WSW,8.1,-,N/A,,Mostly Cloudy,240,2012-11-28 13:34:00
8:54 AM,28.0,23.0,81,30.34,5.0,WSW,6.9,-,N/A,,Scattered Clouds,250,2012-11-28 13:54:00
9:14 AM,29.1,23.2,78,30.34,5.0,WSW,9.2,-,N/A,,Clear,250,2012-11-28 14:14:00
9:34 AM,30.2,23.7,77,30.34,7.0,West,9.2,-,N/A,,Clear,260,2012-11-28 14:34:00
9:54 AM,31.8,23.9,73,30.35,10.0,West,9.2,-,N/A,,Clear,280,2012-11-28 14:54:00
10:14 AM,33.1,22.5,65,30.36,10.0,WNW,11.5,-,N/A,,Clear,290,2012-11-28 15:14:00
10:34 AM,34.2,22.6,63,30.36,10.0,WNW,10.4,-,N/A,,Clear,300,2012-11-28 15:34:00
10:54 AM,34.9,20.8,57,30.37,10.0,WNW,9.2,-,N/A,,Clear,300,2012-11-28 15:54:00
11:14 AM,36.0,20.7,54,30.37,10.0,West,10.4,-,N/A,,Clear,280,2012-11-28 16:14:00
11:34 AM,36.5,19.6,50,30.36,10.0,West,9.2,-,N/A,,Clear,280,2012-11-28 16:34:00
11:54 AM,37.2,18.1,46,30.35,10.0,WNW,9.2,-,N/A,,Clear,290,2012-11-28 16:54:00
12:14 PM,37.8,18.5,46,30.35,10.0,WNW,11.5,-,N/A,,Clear,290,2012-11-28 17:14:00
12:34 PM,38.7,19.0,45,30.35,10.0,WNW,6.9,-,N/A,,Clear,290,2012-11-28 17:34:00
12:54 PM,39.0,18.5,44,30.35,10.0,West,9.2,-,N/A,,Clear,260,2012-11-28 17:54:00
1:14 PM,39.7,18.5,42,30.35,10.0,West,10.4,17.3,N/A,,Clear,280,2012-11-28 18:14:00
1:34 PM,40.1,18.1,41,30.34,10.0,West,13.8,-,N/A,,Clear,280,2012-11-28 18:34:00
1:54 PM,40.3,18.5,42,30.33,10.0,NNW,11.5,-,N/A,,Clear,330,2012-11-28 18:54:00
2:14 PM,40.3,19.2,43,30.33,10.0,WNW,9.2,-,N/A,,Clear,290,2012-11-28 19:14:00
2:34 PM,41.0,20.1,43,30.32,10.0,WNW,10.4,-,N/A,,Clear,300,2012-11-28 19:34:00
2:54 PM,40.6,20.3,44,30.32,10.0,West,10.4,-,N/A,,Clear,270,2012-11-28 19:54:00
3:14 PM,40.6,20.5,45,30.32,10.0,WNW,8.1,-,N/A,,Clear,290,2012-11-28 20:14:00
3:35 PM,40.1,21.0,47,30.32,10.0,WNW,10.4,-,N/A,,Clear,290,2012-11-28 20:35:00
3:54 PM,39.7,21.2,48,30.32,10.0,WNW,9.2,-,N/A,,Clear,290,2012-11-28 20:54:00
4:14 PM,39.4,21.6,49,30.32,10.0,West,6.9,-,N/A,,Clear,270,2012-11-28 21:14:00
4:35 PM,38.3,21.2,50,30.33,10.0,West,10.4,-,N/A,,Clear,280,2012-11-28 21:35:00
4:54 PM,36.9,21.6,54,30.33,10.0,West,6.9,-,N/A,,Clear,270,2012-11-28 21:54:00
5:14 PM,34.3,21.7,60,30.34,10.0,West,6.9,-,N/A,,Clear,280,2012-11-28 22:14:00
5:35 PM,33.1,21.2,62,30.34,10.0,WNW,4.6,-,N/A,,Clear,290,2012-11-28 22:35:00
5:54 PM,32.0,21.0,64,30.34,10.0,WNW,4.6,-,N/A,,Clear,290,2012-11-28 22:54:00
6:14 PM,31.1,21.2,67,30.34,10.0,Calm,Calm,-,N/A,,Clear,0,2012-11-28 23:14:00
6:34 PM,27.5,19.6,72,30.35,10.0,Calm,Calm,-,N/A,,Clear,0,2012-11-28 23:34:00
6:54 PM,26.1,19.2,75,30.35,10.0,SW,3.5,-,N/A,,Clear,220,2012-11-28 23:54:00
7:14 PM,26.2,20.1,78,30.35,10.0,WSW,3.5,-,N/A,,Clear,240,2012-11-29 00:14:00
7:34 PM,26.4,20.5,78,30.36,10.0,WSW,3.5,-,N/A,,Clear,250,2012-11-29 00:34:00
7:54 PM,24.4,20.1,84,30.37,10.0,Calm,Calm,-,N/A,,Clear,0,2012-11-29 00:54:00
8:14 PM,24.3,19.8,83,30.37,10.0,Calm,Calm,-,N/A,,Clear,0,2012-11-29 01:14:00
8:34 PM,24.8,19.4,80,30.37,10.0,Calm,Calm,-,N/A,,Clear,0,2012-11-29 01:34:00
8:54 PM,23.9,19.4,83,30.37,10.0,Calm,Calm,-,N/A,,Clear,0,2012-11-29 01:54:00
9:14 PM,24.3,19.9,84,30.37,10.0,Calm,Calm,-,N/A,,Clear,0,2012-11-29 02:14:00
9:34 PM,22.5,18.3,84,30.36,10.0,Calm,Calm,-,N/A,,Clear,0,2012-11-29 02:34:00
9:54 PM,22.6,18.5,84,30.37,10.0,SW,3.5,-,N/A,,Clear,230,2012-11-29 02:54:00
10:14 PM,21.6,18.0,86,30.36,7.0,SW,4.6,-,N/A,,Clear,220,2012-11-29 03:14:00
10:34 PM,22.8,19.0,85,30.36,7.0,SW,4.6,-,N/A,,Clear,220,2012-11-29 03:34:00
10:54 PM,22.5,18.3,84,30.36,7.0,SW,4.6,-,N/A,,Clear,220,2012-11-29 03:54:00
11:14 PM,21.2,18.1,88,30.36,7.0,WSW,3.5,-,N/A,,Clear,240,2012-11-29 04:14:00
11:34 PM,21.2,18.1,88,30.36,7.0,SW,4.6,-,N/A,,Clear,230,2012-11-29 04:34:00
11:54 PM,21.4,18.5,89,30.36,7.0,SW,3.5,-,N/A,,Clear,230,2012-11-29 04:54:00